Total_Precipitation_Accumulation
1.45 1.43 1.37 1.26 1.25 1.27 1.28 1.35 1.45 1.30 0.99 0.77 0.73 0.72 0.77 0.79 0.89 0.86 0.80 0.96 0.96 0.89 0.89 0.89 0.87 0.85 0.83 0.85 0.94 1.10 1.21 1.26 1.30 1.39 1.46 1.44 1.40 1.44
1.26 1.32 1.33 1.25 1.21 1.21 1.25 1.29 1.37 1.42 1.20 0.81 0.70 0.70 0.75 0.78 0.87 0.78 0.73 0.88 0.86 0.84 0.80 0.77 0.75 0.73 0.71 0.71 0.74 0.82 0.92 1.01 1.08 1.20 1.38 1.54 1.60 1.63
1.10 1.12 1.14 1.17 1.22 1.21 1.23 1.27 1.31 1.37 1.34 0.99 0.79 0.78 0.83 0.84 0.83 0.77 0.70 0.68 0.68 0.78 0.74 0.70 0.67 0.65 0.64 0.63 0.64 0.67 0.70 0.78 0.88 1.01 1.15 1.31 1.44 1.48
0.95 0.99 1.00 1.03 1.08 1.12 1.18 1.24 1.27 1.28 1.30 1.13 0.90 0.81 0.79 0.77 0.75 0.73 0.68 0.62 0.57 0.68 0.67 0.64 0.62 0.59 0.57 0.56 0.58 0.62 0.63 0.66 0.73 0.80 0.88 1.01 1.15 1.27
0.85 0.87 0.89 0.95 1.00 1.01 1.04 1.07 1.09 1.11 1.15 1.12 0.94 0.78 0.72 0.68 0.69 0.66 0.61 0.57 0.52 0.56 0.58 0.58 0.58 0.58 0.58 0.57 0.58 0.58 0.57 0.55 0.57 0.63 0.70 0.82 0.92 1.02
0.79 0.83 0.86 0.89 0.90 0.91 0.95 0.96 0.96 0.97 0.99 1.02 0.96 0.85 0.78 0.73 0.75 0.73 0.68 0.62 0.57 0.52 0.57 0.57 0.58 0.58 0.54 0.51 0.50 0.51 0.52 0.54 0.59 0.65 0.71 0.77 0.84 0.92
0.76 0.79 0.83 0.92 0.95 0.92 0.88 0.86 0.86 0.91 0.96 1.03 1.00 0.86 0.74 0.70 0.70 0.66 0.66 0.66 0.65 0.60 0.59 0.53 0.48 0.43 0.41 0.43 0.46 0.49 0.53 0.58 0.62 0.66 0.71 0.77 0.82 0.89
0.74 0.72 0.72 0.78 0.78 0.80 0.79 0.77 0.81 0.88 0.99 1.04 0.94 0.78 0.62 0.56 0.56 0.61 0.68 0.74 0.68 0.52 0.52 0.51 0.47 0.46 0.41 0.38 0.47 0.50 0.51 0.53 0.56 0.58 0.61 0.67 0.74 0.80
0.71 0.66 0.62 0.60 0.62 0.54 0.59 0.63 0.65 0.74 0.77 0.70 0.64 0.56 0.52 0.52 0.62 0.71 0.71 0.70 0.58 0.45 0.51 0.56 0.49 0.47 0.41 0.42 0.48 0.45 0.45 0.48 0.52 0.57 0.59 0.62 0.66 0.72
0.56 0.51 0.47 0.44 0.42 0.44 0.46 0.53 0.51 0.50 0.50 0.47 0.45 0.43 0.43 0.47 0.58 0.71 0.74 0.73 0.60 0.49 0.49 0.53 0.44 0.41 0.37 0.38 0.46 0.45 0.45 0.48 0.54 0.60 0.64 0.65 0.67 0.71
0.45 0.41 0.40 0.37 0.44 0.51 0.50 0.51 0.42 0.36 0.40 0.45 0.48 0.48 0.50 0.51 0.53 0.65 0.77 0.85 0.75 0.51 0.42 0.45 0.39 0.37 0.37 0.36 0.39 0.45 0.44 0.46 0.49 0.52 0.55 0.59 0.64 0.69
0.36 0.37 0.42 0.41 0.48 0.55 0.51 0.46 0.40 0.34 0.35 0.40 0.44 0.46 0.44 0.47 0.54 0.54 0.69 0.96 0.86 0.62 0.35 0.41 0.44 0.51 0.65 0.40 0.33 0.35 0.39 0.43 0.47 0.51 0.54 0.59 0.65 0.68
0.34 0.33 0.36 0.47 0.54 0.56 0.49 0.41 0.42 0.46 0.42 0.41 0.42 0.43 0.44 0.46 0.49 0.48 0.55 0.90 1.12 0.83 0.39 0.64 0.82 0.65 0.82 0.57 0.35 0.32 0.34 0.37 0.43 0.48 0.54 0.61 0.70 0.85
0.34 0.32 0.36 0.49 0.51 0.49 0.47 0.46 0.51 0.49 0.41 0.43 0.46 0.44 0.41 0.40 0.40 0.43 0.46 0.52 0.69 0.77 0.56 0.83 1.21 0.92 1.04 0.86 0.48 0.36 0.35 0.36 0.45 0.57 0.63 0.74 0.79 0.86
0.37 0.39 0.42 0.44 0.43 0.42 0.45 0.50 0.49 0.44 0.43 0.46 0.46 0.43 0.40 0.40 0.43 0.48 0.51 0.50 0.50 0.48 0.49 0.58 0.85 0.93 1.14 1.11 0.71 0.44 0.43 0.42 0.45 0.60 0.71 0.78 0.79 0.83
0.41 0.40 0.40 0.38 0.39 0.41 0.43 0.44 0.45 0.46 0.50 0.51 0.48 0.45 0.46 0.49 0.52 0.53 0.57 0.58 0.62 0.53 0.47 0.46 0.55 0.85 1.04 0.82 0.82 0.68 0.55 0.61 0.55 0.67 0.77 0.80 0.84 0.89
0.50 0.45 0.42 0.40 0.39 0.38 0.39 0.40 0.42 0.46 0.51 0.51 0.55 0.57 0.56 0.56 0.54 0.53 0.60 0.66 0.70 0.56 0.48 0.47 0.50 0.59 0.70 0.76 0.81 0.65 0.58 0.64 0.73 0.86 1.01 1.04 0.95 0.98
0.62 0.51 0.42 0.39 0.39 0.38 0.39 0.42 0.45 0.48 0.52 0.58 0.62 0.66 0.69 0.67 0.63 0.57 0.59 0.68 0.69 0.57 0.51 0.50 0.58 0.73 0.69 0.60 0.61 0.70 0.73 0.80 0.85 0.93 1.11 1.30 1.12 0.96
0.57 0.44 0.36 0.34 0.35 0.39 0.43 0.48 0.49 0.49 0.57 0.67 0.73 0.77 0.80 0.77 0.73 0.68 0.64 0.66 0.64 0.56 0.53 0.56 0.72 1.06 1.09 0.67 0.43 0.61 0.95 1.04 0.98 1.01 1.09 1.30 1.44 1.20
0.41 0.36 0.35 0.36 0.40 0.45 0.49 0.53 0.56 0.58 0.64 0.68 0.73 0.79 0.87 0.90 0.83 0.74 0.70 0.72 0.73 0.66 0.58 0.53 0.63 1.02 1.46 1.24 0.90 0.65 0.77 1.13 1.36 1.40 1.18 1.04 1.09 1.09
0.32 0.33 0.37 0.42 0.47 0.51 0.54 0.57 0.62 0.66 0.66 0.71 0.74 0.78 0.87 0.98 0.89 0.75 0.75 0.74 0.80 0.79 0.69 0.52 0.51 0.72 1.09 1.31 1.10 0.70 0.71 0.84 1.19 1.62 1.57 1.36 1.12 1.00
0.35 0.39 0.43 0.49 0.57 0.62 0.65 0.66 0.67 0.65 0.67 0.72 0.73 0.76 0.82 0.94 0.95 0.85 0.84 0.85 0.79 0.76 0.72 0.59 0.57 0.68 0.90 1.15 0.97 0.68 0.66 0.65 0.68 0.79 1.16 1.68 2.21 2.28
0.43 0.48 0.51 0.56 0.62 0.68 0.70 0.70 0.69 0.64 0.65 0.74 0.79 0.79 0.84 0.89 0.85 0.90 0.90 0.92 0.92 0.83 0.76 0.70 0.62 0.63 0.68 0.77 0.84 0.75 0.66 0.61 0.58 0.63 0.84 1.01 1.27 1.56